Wind_Speed
1 1 1 2 2 1 2 3 4 4 5 5 5 5 5 6 6 6 6 5 5 4 4 4 4 4 4 4 3 4 4 4 4 4 4 4 4 4 4 4 4 3 3 4 4 5 5 6 6
2 2 2 3 3 2 3 4 5 5 5 5 5 6 6 7 7 7 7 6 5 5 5 4 4 4 4 4 4 5 5 5 5 5 5 5 5 5 4 4 4 4 4 4 5 5 6 7 7
3 3 3 4 4 3 4 5 5 5 6 6 6 6 7 7 8 8 8 7 6 6 5 5 4 5 4 4 5 5 6 6 5 5 5 5 5 4 4 4 5 4 4 4 5 6 7 7 8
4 4 4 4 4 5 6 6 5 6 6 6 7 7 8 8 8 8 8 8 8 7 7 7 6 6 5 6 6 6 6 5 5 6 6 5 4 4 4 5 5 5 5 5 5 6 7 8 8
4 4 3 4 5 5 6 6 6 7 7 7 7 8 8 9 9 9 9 8 9 9 8 8 8 7 7 7 7 6 6 6 6 6 6 6 5 4 5 5 5 5 5 5 5 6 6 7 8
4 4 4 4 5 6 6 7 7 7 8 8 8 8 8 9 9 10 9 9 9 9 9 9 9 9 8 8 7 7 6 6 6 7 7 6 6 5 5 5 5 5 5 5 6 6 6 7 8
5 4 5 5 6 6 6 7 8 8 8 8 8 8 9 9 10 10 10 10 10 10 10 10 10 10 9 8 8 8 7 7 7 7 7 7 7 6 5 5 5 6 6 5 6 6 6 7 7
4 5 5 6 7 7 7 7 7 8 8 9 9 9 9 9 10 11 10 10 10 10 10 11 10 9 9 9 8 8 8 8 7 7 7 8 7 6 6 6 6 5 6 6 6 7 7 7 7
5 5 6 7 7 7 6 7 8 8 8 9 9 9 10 10 11 11 11 11 11 10 10 11 10 9 9 9 9 8 8 8 8 8 8 8 7 7 7 7 7 7 7 7 7 8 8 8 8
5 5 6 7 7 7 7 7 8 8 8 8 9 9 10 10 10 11 11 11 11 10 10 11 10 10 9 9 9 9 9 8 8 8 8 8 8 8 7 7 8 8 8 8 8 8 8 8 8
4 5 6 6 7 7 7 7 8 8 9 9 9 10 9 10 11 11 11 10 10 10 10 10 9 9 9 9 9 9 9 8 8 8 8 8 8 8 8 7 8 8 8 8 8 8 9 8 9
4 4 5 5 6 7 8 8 8 9 9 9 9 9 10 10 10 10 10 10 10 10 10 10 9 9 9 9 9 9 9 9 9 9 9 8 8 7 7 7 8 8 7 7 8 8 8 8 8
4 4 5 5 6 7 8 7 8 8 8 9 10 10 10 10 9 10 10 10 10 9 10 10 10 9 9 9 9 9 9 10 10 9 9 8 8 8 7 8 8 7 7 8 7 7 8 7 7
4 4 5 6 6 7 7 7 7 7 8 9 10 10 10 10 9 9 10 10 9 9 10 10 9 8 8 9 9 9 9 9 10 10 9 9 8 8 8 8 7 7 7 6 7 7 7 7 7
4 5 6 6 6 6 7 6 6 7 8 9 9 10 10 9 9 9 9 10 10 9 9 9 9 9 9 9 9 8 9 9 9 10 10 9 9 8 8 7 7 6 6 6 6 6 6 6 7
4 5 6 6 6 6 6 6 7 7 8 9 9 9 9 9 9 8 8 9 9 9 8 9 9 9 9 9 9 9 9 9 9 9 9 10 9 8 8 7 7 7 7 7 7 6 6 6 6
5 6 6 6 6 6 7 7 7 8 8 9 9 9 9 9 9 8 8 9 9 9 9 9 9 8 8 9 9 9 9 9 9 9 9 9 9 8 8 7 7 7 7 7 7 6 7 7 7
5 6 6 7 7 7 8 8 8 8 8 8 9 9 9 10 9 8 8 8 8 9 9 8 8 8 8 9 8 8 8 8 8 8 8 9 8 8 7 7 7 6 6 6 6 6 6 7 7
7 7 6 7 7 8 8 8 8 8 9 9 9 9 9 9 9 8 8 8 8 8 9 8 9 8 8 8 7 7 7 7 7 7 7 7 6 6 6 6 6 6 6 6 6 6 6 6 6
7 8 7 7 8 8 8 9 8 9 9 10 9 10 9 9 9 8 8 8 8 8 8 8 8 7 7 6 6 6 6 6 6 5 5 5 5 5 5 5 5 5 5 5 5 5 5 5 5
7 7 7 7 8 8 8 9 9 9 9 9 10 10 9 9 9 9 8 8 7 8 8 8 8 7 6 5 5 5 5 4 5 4 4 4 4 5 4 4 4 4 5 4 4 5 5 5 4
8 7 7 7 8 8 8 8 9 9 10 11 11 10 10 10 10 10 8 8 8 8 8 9 7 6 5 4 4 4 4 4 4 4 3 3 4 4 3 4 3 4 4 4 5 5 4 4 5
9 8 7 7 7 7 7 8 8 10 10 10 11 11 11 10 10 9 8 8 8 8 8 7 7 6 5 4 4 4 4 4 4 4 3 3 3 3 4 4 3 3 3 4 4 4 4 4 5
9 9 8 7 7 7 7 9 9 10 11 11 11 11 11 10 9 8 7 7 7 7 7 7 7 7 5 4 4 4 4 4 4 4 4 4 3 3 4 3 3 3 4 4 4 4 4 5 5
9 8 7 7 7 8 9 10 10 10 11 11 12 11 10 9 8 8 7 7 7 7 7 7 7 7 5 5 4 4 4 4 4 4 4 4 3 3 3 3 4 4 4 4 4 4 5 5 6
9 9 8 7 7 8 10 12 11 11 11 11 11 11 10 9 9 8 8 7 7 7 7 7 7 7 6 5 5 5 5 5 5 5 5 4 4 4 4 4 5 5 5 5 5 5 5 5 5
10 10 9 8 8 8 10 13 13 12 12 12 11 11 10 9 9 9 8 8 7 8 8 7 7 6 5 5 5 5 6 6 5 6 5 5 5 5 5 5 4 5 5 5 5 5 5 5 6
12 11 11 10 10 9 10 12 13 13 13 13 12 12 10 9 9 9 8 8 8 8 8 7 7 6 5 5 5 5 5 5 5 6 6 6 5 5 5 5 5 5 5 6 6 6 6 7 7
13 13 13 12 11 10 10 12 13 14 14 14 13 12 11 10 9 9 9 9 8 8 8 7 6 6 5 5 5 5 6 6 6 6 6 6 6 5 5 6 6 6 6 7 7 7 6 7 7
15 14 14 14 13 12 13 14 14 14 15 14 14 13 12 11 10 10 9 9 9 8 8 8 7 7 6 6 6 7 7 7 7 7 7 7 7 6 6 7 6 6 6 7 7 7 7 7 7
Wind_Direction
309 276 278 277 271 289 300 294 290 289 291 292 294 297 293 293 292 296 300 301 301 302 301 305 298 299 300 295 289 291 293 289 296 296 292 295 291 284 268 261 265 253 237 240 242 236 232 226 223
280 283 285 285 287 289 289 295 290 283 288 290 293 294 294 291 290 289 293 296 296 293 293 295 302 307 303 300 296 298 295 294 293 296 292 292 290 285 274 268 266 258 259 263 256 246 236 233 229
270 277 285 292 294 288 295 300 294 285 287 289 288 290 291 290 289 288 291 292 290 286 286 292 301 303 301 298 302 299 301 300 292 298 298 301 298 294 284 271 264 261 264 269 263 247 239 236 238
270 274 283 288 287 285 293 301 295 292 291 292 292 290 288 293 294 292 291 290 291 285 281 285 292 296 296 297 298 297 296 293 294 294 292 294 293 294 290 280 271 267 267 263 252 245 242 241 243
270 274 282 286 284 287 291 295 293 292 291 290 292 293 293 292 292 294 292 292 289 280 279 282 287 288 291 297 299 298 296 291 293 292 288 290 295 295 294 288 277 267 265 261 255 256 247 244 245
278 280 284 287 290 289 288 290 290 287 286 287 286 287 290 294 295 295 291 294 292 281 278 282 283 280 285 290 294 295 294 295 295 293 291 289 288 295 298 294 284 274 270 265 260 254 250 248 244
278 283 281 285 289 290 290 292 291 290 290 289 290 288 290 293 293 294 293 294 293 285 281 283 282 282 283 284 287 287 287 290 290 293 294 288 284 285 288 290 287 276 269 264 259 251 252 250 249
284 286 284 291 289 288 291 293 293 291 293 292 291 293 292 291 293 293 291 295 291 288 286 286 283 281 282 283 285 286 285 283 287 290 291 288 281 279 282 279 277 274 268 265 258 255 256 250 250
287 288 288 289 291 292 296 294 295 293 293 295 293 294 295 294 292 292 292 290 289 290 292 290 286 282 279 280 282 282 284 282 282 285 288 287 283 281 280 275 269 266 265 264 259 256 258 254 251
290 290 289 294 300 301 299 295 298 297 295 296 296 298 298 296 294 294 292 288 287 286 292 294 288 283 278 277 279 279 282 285 284 285 283 286 283 280 278 272 270 268 264 261 259 257 260 260 259
296 294 295 299 301 303 300 298 299 300 298 298 297 298 298 295 296 295 296 292 292 292 293 291 290 283 278 279 279 277 280 284 283 281 280 285 283 283 283 278 275 271 266 259 256 256 258 261 262
296 300 305 304 304 305 304 302 302 302 304 303 304 302 301 299 295 295 297 298 296 295 291 290 297 289 281 278 277 276 277 278 279 282 283 284 285 287 285 282 277 274 269 260 257 260 260 260 258
288 299 311 312 311 312 311 308 308 308 303 304 307 305 302 304 300 298 298 299 302 298 295 289 294 294 287 281 276 274 275 277 280 282 284 283 283 286 286 286 281 274 268 263 259 261 260 257 253
292 294 306 313 315 317 317 318 315 313 313 311 310 308 303 300 300 299 301 303 302 299 296 293 294 295 288 284 282 278 277 281 288 289 286 284 281 283 283 286 284 276 270 267 262 260 261 254 256
292 297 305 310 313 316 321 323 320 322 325 319 316 312 307 306 303 301 302 307 306 303 297 291 295 291 284 281 284 282 280 283 286 289 285 280 281 282 284 287 286 278 274 269 261 258 260 256 256
294 299 308 314 311 313 319 323 323 325 326 324 320 316 314 313 313 310 309 309 308 304 298 292 293 292 286 286 286 281 282 284 285 285 287 284 283 283 281 283 285 281 273 264 257 260 262 259 255
298 301 308 312 315 312 313 315 323 326 325 324 323 321 321 319 316 311 311 311 308 306 305 302 299 295 292 292 288 284 285 285 288 286 284 284 283 279 277 276 278 279 274 265 262 264 270 265 260
291 294 299 305 312 316 313 318 324 326 325 327 327 324 321 320 319 314 313 311 308 308 310 309 305 299 293 294 290 289 288 289 290 288 285 281 281 279 272 271 275 278 278 273 267 267 267 267 265
279 287 295 302 307 312 315 319 326 328 327 328 330 326 320 318 319 317 317 315 313 314 313 309 303 301 296 294 291 291 290 291 294 292 287 282 281 281 284 282 278 281 281 279 273 267 268 272 266
273 278 286 296 302 309 316 319 325 325 323 321 327 331 328 323 321 317 313 313 314 318 318 314 313 306 301 300 297 294 289 290 295 298 292 283 282 289 294 291 278 279 278 277 273 269 273 274 273
272 275 279 291 296 302 312 318 322 325 323 323 324 326 326 324 324 319 313 305 307 311 313 318 317 311 304 293 296 297 294 298 304 302 298 287 286 297 291 291 279 275 273 271 269 273 276 274 273
272 271 279 286 295 301 308 312 316 322 324 322 322 324 324 323 321 318 318 310 304 308 309 310 312 313 307 299 299 299 299 300 307 302 301 297 294 298 298 305 294 277 273 273 272 268 270 268 271
266 274 279 284 292 298 302 307 313 315 317 319 321 322 322 321 321 320 319 316 312 309 308 308 309 309 306 310 308 304 302 299 300 297 294 297 296 299 308 305 298 278 274 277 272 264 261 262 265
265 265 269 279 291 293 296 300 300 307 313 317 318 318 320 319 318 320 323 325 322 318 310 309 312 311 298 296 304 301 300 298 299 302 300 295 298 305 311 295 289 283 276 278 278 271 264 267 265
264 263 268 273 279 288 294 292 294 301 309 314 317 317 318 315 316 317 321 327 325 323 319 308 305 302 293 287 289 290 293 301 305 303 306 300 297 304 304 295 287 292 287 281 279 275 275 279 277
259 255 251 255 261 280 292 296 298 300 308 314 315 314 313 314 317 317 317 319 321 325 321 314 305 299 288 279 278 283 282 290 296 299 301 297 290 287 292 296 289 294 291 280 277 281 287 285 283
258 254 254 255 265 272 281 289 293 296 304 308 311 312 310 309 309 311 313 313 315 321 322 316 306 300 289 278 273 279 279 280 283 288 293 294 289 289 294 298 291 294 292 282 278 282 284 284 282
257 256 255 255 257 259 270 279 286 296 300 301 304 307 306 307 309 309 309 312 310 313 317 319 312 302 291 281 278 280 284 285 286 290 287 290 293 287 290 295 295 288 285 285 278 278 278 280 284
257 256 259 260 260 259 264 272 282 291 296 298 301 304 302 302 302 302 305 309 306 309 314 314 313 306 298 289 285 282 282 278 283 287 285 289 290 286 285 288 290 284 281 286 286 282 281 283 286
255 255 255 258 261 260 262 270 275 284 290 294 297 299 300 297 296 296 299 304 305 305 307 308 308 304 297 289 285 281 281 281 284 286 286 285 283 281 283 282 284 288 287 288 289 285 284 288 291
Height
5875 5875 5875 5876 5877 5877 5876 5876 5876 5876 5877 5876 5876 5876 5876 5877 5877 5879 5877 5875 5875 5875 5874 5874 5874 5874 5873 5873 5873 5872 5872 5872 5872 5871 5871 5870 5870 5870 5870 5870 5870 5871 5871 5871 5871 5872 5872 5873 5874
5874 5875 5876 5876 5875 5876 5876 5876 5876 5876 5876 5876 5876 5876 5876 5876 5876 5876 5875 5874 5874 5874 5874 5873 5873 5873 5873 5872 5872 5872 5871 5871 5871 5870 5870 5869 5869 5869 5869 5869 5869 5870 5870 5870 5870 5870 5871 5872 5873
5874 5874 5875 5875 5874 5875 5875 5875 5875 5875 5875 5875 5875 5875 5875 5875 5875 5874 5874 5874 5873 5873 5873 5873 5872 5872 5872 5872 5871 5871 5870 5870 5870 5869 5869 5869 5868 5868 5868 5868 5868 5869 5869 5869 5869 5868 5870 5870 5871
5873 5874 5875 5875 5874 5874 5874 5874 5874 5874 5874 5874 5874 5874 5874 5874 5873 5873 5873 5872 5872 5872 5872 5872 5871 5871 5871 5870 5870 5870 5870 5869 5869 5868 5868 5868 5867 5867 5867 5867 5867 5868 5868 5868 5868 5868 5869 5869 5870
5872 5873 5874 5873 5873 5873 5873 5873 5873 5873 5873 5873 5873 5873 5873 5873 5872 5872 5871 5871 5871 5871 5871 5870 5870 5870 5870 5869 5869 5869 5869 5868 5868 5867 5867 5866 5866 5866 5866 5866 5866 5866 5867 5867 5867 5867 5868 5868 5869
5872 5872 5873 5872 5872 5872 5872 5872 5872 5872 5872 5872 5872 5872 5872 5871 5871 5870 5870 5870 5870 5869 5869 5869 5868 5868 5868 5868 5868 5868 5867 5867 5866 5866 5866 5866 5865 5865 5865 5865 5865 5865 5866 5866 5866 5866 5866 5867 5867
5872 5872 5871 5871 5871 5871 5871 5871 5871 5871 5871 5871 5871 5871 5870 5870 5869 5869 5869 5868 5868 5867 5867 5867 5867 5867 5867 5866 5866 5866 5866 5865 5865 5865 5864 5864 5864 5864 5864 5864 5864 5864 5864 5864 5864 5865 5865 5865 5866
5870 5871 5870 5870 5870 5870 5870 5870 5870 5870 5869 5869 5869 5869 5869 5869 5868 5867 5867 5867 5866 5866 5865 5865 5865 5865 5865 5865 5865 5864 5864 5864 5864 5863 5863 5863 5863 5863 5862 5863 5863 5863 5863 5863 5863 5863 5863 5864 5864
5869 5871 5869 5869 5869 5869 5869 5869 5869 5868 5868 5868 5868 5867 5867 5867 5866 5865 5865 5865 5864 5864 5864 5863 5863 5863 5863 5863 5863 5863 5862 5862 5862 5862 5862 5861 5861 5861 5861 5861 5861 5861 5861 5862 5862 5862 5862 5862 5863
5869 5869 5868 5868 5868 5868 5868 5868 5867 5867 5867 5867 5866 5866 5865 5865 5864 5864 5863 5863 5862 5862 5862 5861 5861 5861 5861 5861 5861 5861 5861 5860 5860 5860 5860 5860 5860 5860 5860 5860 5860 5859 5860 5860 5860 5860 5860 5860 5861
5867 5867 5867 5867 5867 5867 5867 5866 5866 5866 5866 5865 5865 5864 5864 5863 5862 5862 5861 5861 5860 5860 5860 5859 5859 5859 5859 5859 5859 5859 5859 5859 5859 5859 5858 5858 5858 5858 5858 5858 5858 5858 5858 5858 5858 5858 5859 5859 5860
5867 5867 5866 5866 5866 5866 5866 5865 5865 5864 5864 5864 5863 5863 5862 5861 5861 5860 5859 5859 5858 5858 5858 5857 5857 5857 5857 5857 5857 5857 5857 5857 5857 5857 5857 5857 5856 5856 5856 5856 5856 5856 5856 5856 5856 5857 5857 5857 5858
5866 5866 5866 5866 5866 5865 5865 5864 5864 5863 5863 5862 5862 5861 5860 5860 5859 5858 5858 5857 5857 5856 5856 5855 5855 5855 5855 5855 5855 5855 5855 5855 5855 5855 5855 5855 5855 5855 5854 5854 5854 5854 5854 5854 5854 5855 5855 5856 5856
5866 5866 5865 5865 5865 5864 5864 5863 5863 5862 5862 5861 5860 5860 5859 5858 5857 5857 5856 5855 5855 5854 5854 5854 5853 5853 5853 5853 5853 5853 5853 5853 5853 5853 5853 5853 5853 5853 5852 5852 5852 5852 5853 5853 5853 5853 5853 5854 5855
5865 5865 5865 5864 5864 5863 5863 5863 5862 5861 5861 5860 5859 5858 5857 5856 5856 5855 5854 5854 5853 5853 5852 5852 5852 5852 5851 5851 5851 5851 5851 5851 5851 5851 5851 5851 5851 5851 5851 5851 5851 5851 5851 5851 5851 5852 5852 5852 5853
5864 5864 5864 5864 5863 5863 5864 5863 5861 5861 5860 5859 5858 5857 5856 5855 5854 5854 5853 5852 5851 5851 5851 5850 5850 5850 5850 5850 5850 5850 5850 5849 5849 5849 5849 5849 5849 5849 5849 5849 5849 5849 5849 5849 5850 5850 5850 5851 5851
5863 5863 5863 5863 5862 5862 5862 5861 5861 5860 5859 5858 5857 5856 5855 5854 5853 5852 5851 5851 5850 5850 5849 5849 5848 5848 5848 5848 5848 5848 5848 5847 5847 5847 5847 5847 5847 5847 5847 5847 5847 5848 5847 5848 5848 5848 5849 5849 5850
5862 5862 5862 5862 5862 5862 5861 5860 5860 5859 5858 5857 5856 5855 5854 5853 5852 5851 5851 5850 5849 5848 5848 5847 5847 5846 5846 5846 5846 5846 5846 5846 5845 5845 5845 5845 5845 5845 5846 5846 5846 5846 5846 5846 5847 5847 5848 5848 5848
5861 5861 5862 5862 5861 5861 5860 5860 5859 5858 5857 5856 5855 5854 5853 5852 5851 5850 5849 5849 5848 5847 5847 5846 5846 5845 5845 5845 5845 5845 5844 5844 5844 5844 5844 5843 5843 5844 5844 5844 5845 5845 5845 5845 5845 5846 5846 5847 5847
5861 5861 5861 5861 5860 5860 5859 5859 5858 5857 5857 5856 5854 5853 5852 5851 5850 5849 5848 5848 5847 5846 5846 5845 5844 5844 5844 5843 5843 5843 5843 5843 5842 5842 5842 5842 5843 5843 5843 5843 5843 5843 5844 5844 5844 5845 5845 5845 5846
5859 5860 5860 5860 5859 5859 5858 5858 5857 5856 5856 5855 5854 5852 5851 5850 5849 5848 5847 5846 5846 5845 5845 5844 5843 5843 5842 5842 5842 5842 5842 5842 5842 5842 5842 5842 5842 5842 5842 5842 5842 5842 5843 5843 5843 5844 5844 5844 5844
5858 5858 5858 5858 5858 5858 5858 5857 5856 5856 5855 5854 5853 5851 5850 5849 5848 5846 5846 5845 5845 5844 5844 5843 5843 5842 5842 5841 5841 5841 5841 5841 5841 5841 5841 5841 5841 5841 5841 5841 5841 5841 5842 5842 5842 5842 5843 5843 5843
5857 5857 5857 5857 5857 5857 5856 5856 5856 5855 5854 5853 5852 5850 5849 5848 5847 5846 5845 5844 5844 5843 5843 5842 5842 5841 5841 5841 5841 5841 5841 5841 5841 5841 5840 5840 5840 5840 5840 5840 5840 5840 5841 5841 5841 5841 5842 5842 5842
5855 5855 5855 5855 5855 5856 5856 5856 5856 5854 5853 5852 5851 5850 5848 5847 5846 5845 5845 5844 5843 5842 5842 5842 5841 5841 5840 5840 5840 5840 5840 5840 5840 5840 5840 5840 5840 5840 5840 5839 5839 5840 5840 5840 5840 5840 5841 5841 5841
5853 5854 5854 5854 5854 5855 5855 5855 5855 5853 5852 5851 5850 5849 5848 5846 5846 5845 5844 5843 5842 5842 5841 5841 5840 5840 5840 5840 5840 5839 5839 5839 5839 5839 5839 5839 5839 5839 5839 5839 5839 5839 5839 5839 5839 5839 5840 5840 5840
5851 5852 5853 5854 5854 5854 5853 5852 5853 5851 5851 5850 5848 5847 5846 5846 5845 5844 5843 5843 5842 5841 5840 5839 5839 5839 5839 5839 5839 5839 5838 5838 5839 5839 5838 5838 5838 5838 5838 5838 5838 5838 5838 5838 5838 5839 5839 5839 5839
5849 5849 5851 5852 5852 5852 5852 5851 5850 5849 5849 5848 5847 5846 5845 5845 5844 5843 5842 5842 5841 5840 5839 5839 5838 5838 5837 5837 5837 5838 5838 5837 5838 5838 5838 5838 5838 5837 5837 5837 5837 5837 5837 5837 5837 5838 5838 5838 5838
5847 5847 5848 5849 5849 5850 5851 5850 5849 5848 5847 5846 5845 5845 5844 5843 5842 5842 5841 5841 5840 5839 5839 5838 5837 5837 5836 5836 5836 5837 5836 5836 5836 5837 5837 5837 5837 5836 5836 5836 5836 5836 5836 5836 5836 5836 5837 5837 5836
5844 5845 5845 5846 5847 5848 5848 5849 5846 5845 5845 5844 5843 5843 5842 5841 5841 5840 5840 5839 5838 5838 5837 5837 5836 5836 5836 5835 5835 5835 5835 5835 5835 5835 5835 5835 5835 5835 5835 5835 5835 5835 5835 5835 5835 5835 5835 5835 5835
5840 5841 5842 5843 5844 5845 5845 5847 5843 5843 5843 5842 5841 5841 5840 5839 5839 5838 5838 5837 5837 5836 5836 5836 5835 5835 5834 5834 5834 5834 5834 5834 5834 5834 5834 5834 5834 5834 5834 5834 5834 5834 5834 5834 5834 5833 5833 5833 5833